Location: Unspecified
(0.0000°N, 0.0000°E)
Time: 22:11:26
(UTC+00:00)

COSMOS 2508 - Visible Passes

Search period start: 01 October 2020 00:00
Search period end: 11 October 2020 00:00
Orbit: 1485 x 1504 km, 82.5° (Epoch: 01 October)

Date Brightness Start Highest point End Pass type
(mag) Time Alt. Az. Time Alt. Az. Time Alt. Az.
01 Oct ? 19:00:30 10° S 19:09:18 81° W 19:18:05 10° N visible
02 Oct ? 18:11:46 10° SSE 18:20:07 49° E 18:28:27 10° NNE visible
02 Oct ? 20:10:30 10° SW 20:16:31 21° W 20:22:36 10° NW visible
03 Oct ? 19:19:03 10° SSW 19:27:21 47° W 19:35:40 10° NNW visible
04 Oct ? 18:29:22 10° S 18:38:10 83° E 18:46:58 10° N visible
05 Oct ? 05:09:46 10° NE 05:15:23 19° E 05:20:58 10° SE visible
05 Oct ? 19:38:28 10° SW 19:45:24 26° W 19:52:22 10° NNW visible
06 Oct ? 18:47:39 10° SSW 18:56:14 59° W 19:04:49 10° N visible
07 Oct ? 17:58:19 10° S 18:07:03 69° E 18:15:46 10° NNE visible
07 Oct ? 19:59:47 10° WSW 20:03:28 13° W 20:07:10 10° WNW visible
08 Oct ? 04:40:08 10° ENE 04:44:15 14° E 04:48:20 10° ESE visible
08 Oct ? 19:06:41 10° SSW 19:14:16 33° W 19:21:54 10° NNW visible
09 Oct ? 18:16:21 10° S 18:25:06 72° W 18:33:51 10° N visible
10 Oct ? 04:55:13 10° NNE 05:02:19 28° E 05:09:21 10° SE visible
10 Oct ? 19:26:59 10° SW 19:32:21 18° W 19:37:43 10° NW visible
